Meteo Giornale » Osservazioni meteo Italia » Roma Fiumicino

ore: 10:20 - Osservazioni Meteo Roma Fiumicino
Lat. 41° 48' N Lon. 12° 14' E Alt. 2 metri s.l.m.

foschia Europe/Rome

12 °C

Foschia

Temp. 24 Ore

9 °C

14 °C

Nord

5.5 Km/h

Dew point 9 °C

Umidità 81 %

Visibilità  5 Km

Il sole sorge alle ore 06:47

Il sole tramonta alle ore 18:00

Data e Ora Cielo e Fenomeni T °C DP °C Um. % Pres. hPa Vis. km Vento km/h
Oggi h: 10:20 foschia Foschia 12 9 81 1024 5 N 5.5
Oggi h: 09:50 foschia Foschia 12 9 81 1024 5 E 7.4
Oggi h: 09:20 foschia Foschia 11 9 87 1024 5 N 5.5
Oggi h: 08:50 foschia Foschia 11 8 81 1024 5 N 3.7
Oggi h: 08:20 foschia Foschia 11 8 81 1024 4 E 7.4
Oggi h: 07:50 foschia Foschia 10 8 87 1024 4 N 3.7
Oggi h: 07:20 foschia Foschia 10 9 93 1023 3 N 3.7
Oggi h: 06:50 foschia Foschia 10 9 93 1023 4 N 1.8
Oggi h: 06:20 foschia Foschia 10 9 93 1023 4 N 1.8
Oggi h: 05:50 foschia Foschia 10 9 93 1023 4 N 3.7
Oggi h: 04:50 foschia Foschia 10 9 93 1023 3 N 1.8
Oggi h: 03:50 foschia Foschia 9 9 100 1024 2 N 3.7
Oggi h: 02:50 foschia Foschia 10 9 93 1024 2 N 5.5
Oggi h: 02:20 foschia Foschia 10 9 93 1024 3 N/NO 7.4
Oggi h: 01:50 foschia Foschia 11 10 93 1025 2 NO 9.3
Oggi h: 01:20 foschia Foschia 11 10 93 1025 5 NO 7.4
Oggi h: 00:50 coperto Coperto 12 10 87 1025 7 N 5.5
Oggi h: 00:20 coperto Coperto 12 10 87 1025 7 N 5.5
Ieri h: 23:50 coperto Coperto 12 10 87 1025 8 N 5.5
Ieri h: 22:50 coperto Coperto 12 10 87 1025 8 N 3.7
Ieri h: 22:20 coperto Coperto 12 10 87 1025 8 O/NO 9.3
Ieri h: 21:50 coperto Coperto 12 10 87 1025 8 N 5.5
Ieri h: 21:20 coperto Coperto 12 10 87 1025 8 N 5.5
Ieri h: 20:50 coperto Coperto 12 10 87 1026 7 O 7.4
Ieri h: 19:20 foschia Foschia 12 10 87 1026 5 O 9.3
Ieri h: 18:50 foschia Foschia 12 10 87 1026 5 O 9.3
Ieri h: 18:20 foschia Foschia 12 11 93 1026 5 O 9.3
Ieri h: 17:50 foschia Foschia 12 11 93 1026 5 O 7.4
Ieri h: 17:20 molto_nuvoloso Molto Nuvoloso 12 10 87 1026 6 O 11.1
Ieri h: 16:50 molto_nuvoloso Molto Nuvoloso 13 11 87 1026 6 O/SO 13
Ieri h: 16:20 nuvoloso Nuvoloso 13 11 87 1026 7 O 13
Ieri h: 15:50 poco_nuvoloso Poco Nuvoloso 14 11 82 1026 7 O 11.1
Ieri h: 15:20 poco_nuvoloso Poco Nuvoloso 14 11 82 1026 7 O 13
Ieri h: 14:50 sereno Sereno 14 11 82 1027 6 O 11.1
Ieri h: 14:20 sereno Sereno 14 11 82 1027 6 O 11.1
Ieri h: 13:50 foschia Foschia 14 11 82 1027 5 O 11.1
Ieri h: 13:20 foschia Foschia 14 11 82 1028 5 O/SO 9.3
Ieri h: 12:50 foschia Foschia 14 10 76 1028 5 O/SO 7.4
Ieri h: 12:20 foschia Foschia 13 10 81 1028 5 O 7.4
Ieri h: 11:50 foschia Foschia 12 10 87 1029 3 O/NO 9.3
Ieri h: 09:50 nebbia Nebbia 10 10 100 1029 0.5 N 3.7